QPF
0.00 0.00 0.00 0.00 0.00 0.00 0.00 0.00 0.00 0.00 0.00 0.00 0.00 0.00 0.00 0.00 0.00 0.00 0.00 0.00 0.00 0.00 0.00 0.00 0.00 0.00 0.00 0.00 0.00 0.00 0.00 0.00 0.00 0.00 0.00 0.00 0.00 0.00 0.00 0.00 0.00 0.00 0.00 0.00
0.00 0.00 0.00 0.00 0.00 0.00 0.00 0.00 0.00 0.00 0.00 0.00 0.00 0.00 0.00 0.00 0.00 0.00 0.00 0.00 0.00 0.00 0.00 0.00 0.00 0.00 0.00 0.00 0.00 0.00 0.00 0.00 0.00 0.00 0.00 0.00 0.00 0.00 0.00 0.00 0.00 0.00 0.00 0.00
0.00 0.00 0.00 0.00 0.00 0.00 0.00 0.00 0.00 0.00 0.00 0.00 0.00 0.00 0.00 0.00 0.00 0.00 0.00 0.00 0.00 0.00 0.00 0.00 0.00 0.00 0.00 0.00 0.00 0.00 0.00 0.00 0.00 0.00 0.00 0.00 0.00 0.00 0.00 0.00 0.00 0.00 0.00 0.00
0.00 0.00 0.00 0.00 0.00 0.00 0.00 0.00 0.00 0.00 0.00 0.00 0.00 0.00 0.00 0.00 0.00 0.00 0.00 0.00 0.00 0.00 0.00 0.00 0.00 0.00 0.00 0.00 0.00 0.00 0.00 0.00 0.00 0.00 0.00 0.00 0.00 0.00 0.00 0.00 0.00 0.00 0.00 0.00
0.00 0.00 0.00 0.00 0.00 0.00 0.00 0.00 0.00 0.00 0.00 0.00 0.00 0.00 0.00 0.00 0.00 0.00 0.00 0.00 0.00 0.00 0.00 0.00 0.00 0.00 0.00 0.00 0.00 0.00 0.00 0.00 0.00 0.00 0.00 0.00 0.00 0.00 0.00 0.00 0.00 0.00 0.00 0.00
0.00 0.00 0.00 0.00 0.00 0.00 0.00 0.00 0.00 0.00 0.00 0.00 0.00 0.00 0.00 0.00 0.00 0.00 0.00 0.00 0.00 0.00 0.00 0.00 0.00 0.00 0.00 0.00 0.00 0.00 0.00 0.00 0.00 0.00 0.00 0.00 0.00 0.00 0.00 0.00 0.00 0.00 0.00 0.00
0.00 0.00 0.00 0.00 0.00 0.00 0.00 0.00 0.00 0.00 0.00 0.00 0.00 0.00 0.00 0.00 0.00 0.00 0.00 0.00 0.00 0.00 0.00 0.00 0.00 0.00 0.00 0.00 0.00 0.00 0.00 0.00 0.00 0.00 0.00 0.00 0.00 0.00 0.00 0.00 0.00 0.00 0.00 0.00
0.00 0.00 0.00 0.00 0.00 0.00 0.00 0.00 0.00 0.00 0.00 0.00 0.00 0.00 0.00 0.00 0.00 0.00 0.00 0.00 0.00 0.00 0.00 0.00 0.00 0.00 0.00 0.00 0.00 0.00 0.00 0.00 0.00 0.00 0.00 0.00 0.00 0.00 0.00 0.00 0.00 0.00 0.00 0.00
0.00 0.00 0.00 0.00 0.00 0.00 0.00 0.00 0.00 0.00 0.00 0.00 0.00 0.00 0.00 0.00 0.00 0.00 0.00 0.00 0.00 0.00 0.00 0.00 0.00 0.00 0.00 0.00 0.00 0.00 0.00 0.00 0.00 0.00 0.00 0.00 0.00 0.00 0.00 0.00 0.00 0.00 0.00 0.00
0.00 0.00 0.00 0.00 0.00 0.00 0.00 0.00 0.00 0.00 0.00 0.00 0.00 0.00 0.00 0.00 0.00 0.00 0.00 0.00 0.00 0.00 0.00 0.00 0.00 0.00 0.00 0.00 0.00 0.00 0.00 0.00 0.00 0.00 0.00 0.00 0.00 0.00 0.00 0.00 0.00 0.00 0.00 0.00
0.00 0.00 0.00 0.00 0.00 0.00 0.00 0.00 0.00 0.00 0.00 0.00 0.00 0.00 0.00 0.00 0.00 0.00 0.00 0.00 0.00 0.00 0.00 0.00 0.00 0.00 0.00 0.00 0.00 0.00 0.00 0.00 0.00 0.00 0.00 0.00 0.00 0.00 0.00 0.00 0.00 0.00 0.00 0.00
0.00 0.00 0.00 0.00 0.00 0.00 0.00 0.00 0.00 0.00 0.00 0.00 0.00 0.00 0.00 0.00 0.00 0.00 0.00 0.00 0.00 0.00 0.00 0.00 0.00 0.00 0.00 0.00 0.00 0.00 0.00 0.00 0.00 0.00 0.00 0.00 0.00 0.00 0.00 0.00 0.00 0.00 0.00 0.00
0.00 0.00 0.00 0.00 0.00 0.00 0.00 0.00 0.00 0.00 0.00 0.00 0.00 0.00 0.00 0.00 0.00 0.00 0.00 0.00 0.00 0.00 0.00 0.00 0.00 0.00 0.00 0.00 0.00 0.00 0.00 0.00 0.00 0.00 0.00 0.00 0.00 0.00 0.00 0.00 0.00 0.00 0.00 0.00
0.00 0.00 0.00 0.00 0.00 0.00 0.00 0.00 0.00 0.00 0.00 0.00 0.00 0.00 0.00 0.00 0.00 0.00 0.00 0.00 0.00 0.00 0.00 0.00 0.00 0.00 0.00 0.00 0.00 0.00 0.00 0.00 0.00 0.00 0.00 0.00 0.00 0.00 0.00 0.00 0.00 0.00 0.00 0.00
0.00 0.00 0.00 0.00 0.00 0.00 0.00 0.00 0.00 0.00 0.00 0.00 0.00 0.00 0.00 0.00 0.00 0.00 0.00 0.00 0.00 0.00 0.00 0.00 0.00 0.00 0.00 0.00 0.00 0.00 0.00 0.00 0.00 0.00 0.00 0.00 0.00 0.00 0.00 0.00 0.00 0.00 0.00 0.01
0.00 0.00 0.00 0.00 0.00 0.00 0.00 0.00 0.00 0.00 0.00 0.00 0.00 0.00 0.00 0.00 0.00 0.00 0.00 0.00 0.00 0.00 0.00 0.00 0.00 0.00 0.00 0.00 0.00 0.00 0.00 0.00 0.00 0.00 0.00 0.00 0.00 0.00 0.00 0.00 0.00 0.00 0.01 0.01
0.00 0.00 0.00 0.00 0.00 0.00 0.00 0.00 0.00 0.00 0.00 0.00 0.00 0.00 0.00 0.00 0.00 0.00 0.00 0.00 0.00 0.00 0.00 0.00 0.00 0.00 0.00 0.00 0.00 0.00 0.00 0.00 0.00 0.00 0.00 0.00 0.00 0.00 0.00 0.00 0.00 0.01 0.01 0.01
0.00 0.00 0.00 0.00 0.00 0.00 0.00 0.00 0.00 0.00 0.00 0.00 0.00 0.00 0.00 0.00 0.00 0.00 0.00 0.00 0.00 0.00 0.00 0.00 0.00 0.00 0.00 0.00 0.00 0.00 0.00 0.00 0.00 0.00 0.00 0.00 0.00 0.00 0.00 0.00 0.01 0.01 0.01 0.01
0.00 0.00 0.00 0.00 0.00 0.00 0.00 0.00 0.00 0.00 0.00 0.00 0.00 0.00 0.00 0.00 0.00 0.00 0.00 0.00 0.00 0.00 0.00 0.00 0.00 0.00 0.00 0.00 0.00 0.00 0.00 0.00 0.00 0.00 0.00 0.00 0.00 0.00 0.00 0.00 0.01 0.01 0.02 0.02
0.00 0.00 0.00 0.00 0.00 0.00 0.00 0.00 0.00 0.00 0.00 0.00 0.00 0.00 0.00 0.00 0.00 0.00 0.00 0.00 0.00 0.00 0.00 0.00 0.00 0.00 0.00 0.00 0.00 0.00 0.00 0.00 0.00 0.00 0.00 0.00 0.00 0.00 0.00 0.01 0.01 0.02 0.02 0.02
0.00 0.00 0.00 0.00 0.00 0.00 0.00 0.00 0.00 0.00 0.00 0.00 0.00 0.00 0.00 0.00 0.00 0.00 0.00 0.00 0.00 0.00 0.00 0.00 0.00 0.00 0.00 0.00 0.00 0.00 0.00 0.00 0.00 0.00 0.00 0.00 0.00 0.00 0.00 0.01 0.02 0.02 0.02 0.02
0.00 0.00 0.00 0.00 0.00 0.00 0.00 0.00 0.00 0.00 0.00 0.00 0.00 0.00 0.00 0.00 0.00 0.00 0.00 0.00 0.00 0.00 0.00 0.00 0.00 0.00 0.00 0.00 0.00 0.00 0.00 0.00 0.00 0.00 0.00 0.00 0.00 0.00 0.01 0.01 0.02 0.02 0.02 0.02
0.00 0.00 0.00 0.00 0.00 0.00 0.00 0.00 0.00 0.00 0.00 0.00 0.00 0.00 0.00 0.00 0.00 0.00 0.00 0.00 0.00 0.00 0.00 0.00 0.00 0.00 0.00 0.00 0.00 0.00 0.00 0.00 0.00 0.00 0.00 0.00 0.00 0.00 0.01 0.01 0.02 0.02 0.02 0.02
0.00 0.00 0.00 0.00 0.00 0.00 0.00 0.00 0.00 0.00 0.00 0.00 0.00 0.00 0.00 0.00 0.00 0.00 0.00 0.00 0.00 0.00 0.00 0.00 0.00 0.00 0.00 0.00 0.00 0.00 0.00 0.00 0.00 0.00 0.00 0.00 0.00 0.00 0.01 0.01 0.01 0.02 0.02 0.02
0.00 0.00 0.00 0.00 0.00 0.00 0.00 0.00 0.00 0.00 0.00 0.00 0.00 0.00 0.00 0.00 0.00 0.00 0.00 0.00 0.00 0.00 0.00 0.00 0.00 0.00 0.00 0.00 0.00 0.00 0.00 0.00 0.00 0.00 0.00 0.00 0.00 0.01 0.01 0.01 0.01 0.02 0.02 0.01
0.00 0.00 0.00 0.00 0.00 0.00 0.00 0.00 0.00 0.00 0.00 0.00 0.00 0.00 0.00 0.00 0.00 0.00 0.00 0.00 0.00 0.00 0.00 0.00 0.00 0.00 0.00 0.00 0.00 0.00 0.00 0.00 0.00 0.00 0.00 0.00 0.00 0.01 0.01 0.01 0.01 0.01 0.01 0.01
MSLP
1020.29 1020.80 1021.22 1021.57 1021.85 1022.08 1022.27 1022.39 1022.42 1022.33 1022.08 1021.66 1021.09 1020.39 1019.64 1018.91 1018.28 1017.82 1017.57 1017.53 1017.70 1018.02 1018.46 1018.96 1019.48 1020.00 1020.53 1021.08 1021.66 1022.29 1022.97 1023.67 1024.37 1025.05 1025.65 1026.17 1026.60 1026.94 1027.21 1027.45 1027.69 1027.97 1028.29 1028.66
1020.54 1020.91 1021.18 1021.41 1021.61 1021.82 1022.03 1022.21 1022.31 1022.28 1022.06 1021.63 1020.97 1020.14 1019.21 1018.27 1017.44 1016.79 1016.38 1016.24 1016.35 1016.66 1017.12 1017.65 1018.21 1018.77 1019.32 1019.87 1020.46 1021.09 1021.77 1022.50 1023.24 1023.97 1024.65 1025.24 1025.74 1026.15 1026.48 1026.77 1027.05 1027.36 1027.70 1028.09
1020.66 1020.86 1021.00 1021.12 1021.27 1021.48 1021.73 1022.00 1022.19 1022.24 1022.06 1021.61 1020.88 1019.91 1018.80 1017.66 1016.62 1015.78 1015.22 1014.97 1015.01 1015.30 1015.76 1016.31 1016.89 1017.46 1018.02 1018.58 1019.16 1019.79 1020.48 1021.22 1022.01 1022.79 1023.53 1024.20 1024.77 1025.25 1025.65 1026.00 1026.33 1026.67 1027.05 1027.46
1020.65 1020.71 1020.73 1020.78 1020.92 1021.15 1021.48 1021.85 1022.15 1022.27 1022.13 1021.66 1020.86 1019.76 1018.48 1017.15 1015.91 1014.89 1014.17 1013.81 1013.77 1014.01 1014.45 1015.00 1015.58 1016.16 1016.72 1017.27 1017.84 1018.45 1019.14 1019.89 1020.70 1021.52 1022.32 1023.06 1023.70 1024.25 1024.72 1025.12 1025.50 1025.88 1026.28 1026.71
1020.59 1020.53 1020.47 1020.49 1020.63 1020.94 1021.36 1021.84 1022.24 1022.44 1022.33 1021.83 1020.95 1019.73 1018.29 1016.78 1015.35 1014.16 1013.31 1012.82 1012.70 1012.88 1013.28 1013.81 1014.37 1014.94 1015.48 1016.00 1016.55 1017.14 1017.82 1018.57 1019.39 1020.23 1021.06 1021.84 1022.54 1023.15 1023.67 1024.12 1024.55 1024.97 1025.40 1025.85
1020.53 1020.39 1020.29 1020.31 1020.51 1020.89 1021.42 1022.00 1022.49 1022.75 1022.65 1022.13 1021.17 1019.83 1018.25 1016.57 1014.99 1013.65 1012.66 1012.06 1011.85 1011.96 1012.31 1012.79 1013.33 1013.86 1014.36 1014.86 1015.37 1015.94 1016.58 1017.32 1018.12 1018.96 1019.81 1020.61 1021.33 1021.97 1022.53 1023.03 1023.49 1023.94 1024.41 1024.88
1020.52 1020.34 1020.24 1020.29 1020.56 1021.03 1021.66 1022.33 1022.88 1023.17 1023.06 1022.49 1021.45 1020.01 1018.31 1016.51 1014.80 1013.33 1012.23 1011.53 1011.24 1011.28 1011.56 1011.99 1012.48 1012.96 1013.43 1013.88 1014.36 1014.88 1015.49 1016.18 1016.96 1017.77 1018.60 1019.38 1020.11 1020.76 1021.34 1021.86 1022.35 1022.84 1023.33 1023.83
1020.57 1020.39 1020.32 1020.43 1020.77 1021.33 1022.03 1022.74 1023.32 1023.60 1023.45 1022.83 1021.71 1020.19 1018.40 1016.51 1014.71 1013.17 1011.99 1011.22 1010.84 1010.81 1011.03 1011.39 1011.82 1012.25 1012.67 1013.08 1013.51 1013.99 1014.55 1015.20 1015.92 1016.69 1017.47 1018.22 1018.92 1019.55 1020.12 1020.65 1021.16 1021.67 1022.19 1022.72
1020.68 1020.53 1020.51 1020.68 1021.08 1021.69 1022.41 1023.12 1023.67 1023.90 1023.70 1023.00 1021.83 1020.25 1018.41 1016.49 1014.66 1013.09 1011.87 1011.05 1010.62 1010.52 1010.67 1010.96 1011.33 1011.70 1012.07 1012.44 1012.83 1013.26 1013.77 1014.36 1015.02 1015.72 1016.44 1017.12 1017.77 1018.36 1018.91 1019.43 1019.94 1020.47 1021.02 1021.58
1020.82 1020.72 1020.75 1020.97 1021.40 1022.00 1022.69 1023.35 1023.81 1023.95 1023.66 1022.89 1021.67 1020.08 1018.25 1016.35 1014.55 1013.00 1011.79 1010.96 1010.49 1010.34 1010.42 1010.65 1010.94 1011.26 1011.58 1011.90 1012.25 1012.65 1013.11 1013.64 1014.23 1014.85 1015.48 1016.09 1016.67 1017.20 1017.70 1018.20 1018.71 1019.25 1019.82 1020.42
1020.96 1020.91 1020.98 1021.22 1021.63 1022.17 1022.77 1023.29 1023.62 1023.63 1023.23 1022.40 1021.16 1019.60 1017.84 1016.03 1014.33 1012.86 1011.71 1010.89 1010.42 1010.22 1010.24 1010.39 1010.61 1010.87 1011.13 1011.41 1011.72 1012.08 1012.50 1012.98 1013.50 1014.04 1014.58 1015.10 1015.59 1016.05 1016.51 1016.97 1017.46 1018.00 1018.60 1019.23
1021.08 1021.08 1021.17 1021.38 1021.72 1022.15 1022.58 1022.93 1023.07 1022.92 1022.41 1021.53 1020.31 1018.82 1017.18 1015.53 1013.98 1012.64 1011.59 1010.83 1010.36 1010.12 1010.08 1010.15 1010.30 1010.48 1010.69 1010.92 1011.19 1011.51 1011.89 1012.31 1012.77 1013.23 1013.68 1014.11 1014.52 1014.91 1015.30 1015.72 1016.20 1016.75 1017.36 1018.02
1021.20 1021.22 1021.31 1021.46 1021.68 1021.94 1022.16 1022.28 1022.21 1021.88 1021.26 1020.34 1019.16 1017.80 1016.33 1014.88 1013.53 1012.37 1011.44 1010.76 1010.30 1010.04 1009.93 1009.92 1009.97 1010.07 1010.21 1010.39 1010.62 1010.90 1011.23 1011.60 1011.99 1012.38 1012.76 1013.10 1013.43 1013.75 1014.09 1014.48 1014.95 1015.49 1016.12 1016.81
1021.34 1021.38 1021.43 1021.48 1021.55 1021.59 1021.57 1021.43 1021.12 1020.62 1019.89 1018.96 1017.86 1016.64 1015.38 1014.16 1013.05 1012.09 1011.30 1010.70 1010.27 1009.97 1009.79 1009.69 1009.64 1009.65 1009.71 1009.82 1010.00 1010.23 1010.51 1010.83 1011.16 1011.48 1011.78 1012.06 1012.32 1012.59 1012.89 1013.26 1013.72 1014.27 1014.92 1015.64
1021.54 1021.58 1021.56 1021.50 1021.38 1021.19 1020.90 1020.50 1019.96 1019.28 1018.47 1017.54 1016.53 1015.49 1014.45 1013.48 1012.60 1011.84 1011.20 1010.68 1010.27 1009.94 1009.68 1009.48 1009.32 1009.22 1009.19 1009.23 1009.34 1009.51 1009.74 1010.00 1010.27 1010.53 1010.77 1010.99 1011.21 1011.44 1011.73 1012.09 1012.56 1013.13 1013.80 1014.54
1021.81 1021.83 1021.74 1021.54 1021.22 1020.79 1020.25 1019.60 1018.85 1018.02 1017.13 1016.22 1015.32 1014.44 1013.63 1012.89 1012.24 1011.66 1011.16 1010.72 1010.32 1009.95 1009.61 1009.30 1009.03 1008.83 1008.69 1008.64 1008.67 1008.78 1008.94 1009.14 1009.35 1009.55 1009.74 1009.93 1010.12 1010.34 1010.63 1011.01 1011.50 1012.10 1012.79 1013.54
1022.13 1022.11 1021.94 1021.60 1021.09 1020.44 1019.67 1018.79 1017.86 1016.91 1015.97 1015.09 1014.29 1013.58 1012.96 1012.44 1011.98 1011.57 1011.18 1010.80 1010.40 1009.99 1009.57 1009.16 1008.79 1008.48 1008.25 1008.10 1008.05 1008.08 1008.17 1008.29 1008.44 1008.59 1008.74 1008.90 1009.09 1009.32 1009.64 1010.05 1010.57 1011.19 1011.90 1012.67
1022.42 1022.35 1022.08 1021.61 1020.94 1020.11 1019.14 1018.09 1017.02 1015.99 1015.03 1014.19 1013.48 1012.92 1012.47 1012.12 1011.82 1011.53 1011.23 1010.89 1010.49 1010.04 1009.56 1009.07 1008.61 1008.20 1007.87 1007.64 1007.50 1007.44 1007.45 1007.51 1007.59 1007.69 1007.80 1007.95 1008.14 1008.39 1008.74 1009.20 1009.76 1010.41 1011.14 1011.90
1022.56 1022.42 1022.07 1021.48 1020.68 1019.71 1018.61 1017.45 1016.30 1015.22 1014.28 1013.49 1012.88 1012.42 1012.11 1011.88 1011.70 1011.51 1011.27 1010.95 1010.55 1010.07 1009.54 1009.00 1008.47 1007.99 1007.59 1007.27 1007.05 1006.90 1006.83 1006.80 1006.81 1006.86 1006.94 1007.07 1007.27 1007.55 1007.94 1008.44 1009.03 1009.71 1010.44 1011.19
1022.42 1022.21 1021.77 1021.09 1020.20 1019.15 1017.98 1016.77 1015.61 1014.55 1013.64 1012.92 1012.40 1012.04 1011.83 1011.69 1011.59 1011.45 1011.25 1010.95 1010.55 1010.06 1009.51 1008.93 1008.36 1007.84 1007.38 1007.00 1006.70 1006.47 1006.31 1006.19 1006.13 1006.11 1006.15 1006.27 1006.47 1006.77 1007.19 1007.72 1008.34 1009.02 1009.75 1010.46
1021.91 1021.61 1021.09 1020.35 1019.42 1018.34 1017.18 1016.00 1014.88 1013.89 1013.06 1012.43 1011.99 1011.72 1011.58 1011.51 1011.44 1011.34 1011.16 1010.87 1010.48 1010.00 1009.44 1008.86 1008.28 1007.73 1007.23 1006.80 1006.43 1006.12 1005.87 1005.67 1005.52 1005.44 1005.43 1005.51 1005.70 1006.02 1006.45 1006.99 1007.61 1008.29 1008.99 1009.66
1020.99 1020.59 1020.01 1019.24 1018.31 1017.27 1016.17 1015.09 1014.09 1013.21 1012.50 1011.98 1011.64 1011.44 1011.35 1011.31 1011.27 1011.18 1011.01 1010.73 1010.35 1009.88 1009.34 1008.77 1008.20 1007.64 1007.12 1006.64 1006.21 1005.82 1005.48 1005.20 1004.97 1004.81 1004.74 1004.79 1004.95 1005.25 1005.68 1006.21 1006.82 1007.47 1008.13 1008.75
1019.71 1019.21 1018.57 1017.79 1016.92 1015.97 1015.00 1014.08 1013.24 1012.53 1011.97 1011.58 1011.33 1011.20 1011.15 1011.13 1011.09 1011.00 1010.82 1010.55 1010.18 1009.72 1009.21 1008.66 1008.10 1007.55 1007.01 1006.49 1006.00 1005.54 1005.12 1004.74 1004.43 1004.20 1004.07 1004.07 1004.20 1004.47 1004.87 1005.37 1005.94 1006.55 1007.16 1007.72
1018.17 1017.58 1016.91 1016.16 1015.37 1014.56 1013.77 1013.04 1012.41 1011.89 1011.51 1011.25 1011.11 1011.04 1011.02 1011.01 1010.96 1010.84 1010.65 1010.36 1010.00 1009.56 1009.06 1008.53 1007.98 1007.42 1006.86 1006.30 1005.76 1005.23 1004.73 1004.27 1003.88 1003.58 1003.40 1003.35 1003.43 1003.66 1004.02 1004.48 1005.01 1005.56 1006.11 1006.61
1016.55 1015.89 1015.21 1014.52 1013.84 1013.20 1012.61 1012.11 1011.70 1011.39 1011.18 1011.06 1011.01 1011.00 1011.00 1010.97 1010.89 1010.74 1010.52 1010.21 1009.83 1009.39 1008.90 1008.37 1007.81 1007.24 1006.65 1006.05 1005.45 1004.86 1004.29 1003.76 1003.31 1002.96 1002.73 1002.63 1002.68 1002.87 1003.19 1003.60 1004.06 1004.56 1005.04 1005.49
1015.04 1014.33 1013.67 1013.06 1012.53 1012.07 1011.69 1011.41 1011.22 1011.10 1011.05 1011.05 1011.07 1011.09 1011.09 1011.03 1010.91 1010.71 1010.44 1010.09 1009.68 1009.22 1008.71 1008.16 1007.58 1006.98 1006.35 1005.70 1005.05 1004.40 1003.78 1003.21 1002.71 1002.33 1002.07 1001.95 1001.97 1002.13 1002.41 1002.77 1003.18 1003.61 1004.03 1004.44
Thickness
5693 5682 5674 5675 5673 5678 5675 5669 5662 5665 5671 5659 5660 5673 5694 5699 5686 5688 5689 5684 5684 5688 5688 5676 5668 5660 5650 5643 5635 5628 5620 5612 5601 5590 5581 5572 5565 5559 5551 5544 5535 5525 5516 5505
5678 5674 5681 5682 5676 5672 5669 5663 5659 5664 5666 5658 5660 5673 5695 5700 5699 5701 5700 5697 5694 5691 5685 5677 5670 5663 5656 5648 5639 5631 5623 5614 5605 5597 5587 5576 5567 5558 5550 5540 5531 5521 5511 5501
5676 5681 5685 5680 5674 5669 5665 5659 5660 5661 5664 5659 5654 5675 5693 5704 5702 5701 5698 5699 5697 5695 5692 5683 5674 5667 5659 5653 5646 5639 5628 5618 5608 5597 5584 5572 5562 5553 5544 5535 5527 5518 5507 5496
5675 5679 5680 5675 5670 5666 5656 5663 5661 5660 5650 5643 5649 5649 5690 5695 5698 5706 5706 5699 5697 5696 5694 5688 5679 5671 5666 5662 5652 5641 5631 5620 5609 5596 5586 5576 5568 5558 5550 5539 5527 5515 5503 5492
5671 5677 5673 5668 5668 5665 5661 5664 5658 5651 5644 5636 5638 5635 5674 5684 5694 5710 5713 5709 5705 5701 5696 5692 5687 5681 5674 5664 5653 5642 5631 5621 5610 5598 5590 5578 5570 5560 5545 5532 5521 5509 5498 5486
5670 5676 5674 5670 5668 5665 5660 5653 5640 5629 5625 5627 5635 5624 5653 5679 5693 5703 5708 5708 5705 5701 5695 5691 5686 5679 5671 5660 5651 5640 5629 5621 5609 5598 5588 5579 5570 5555 5539 5527 5515 5503 5492 5480
5663 5668 5670 5668 5662 5657 5653 5638 5624 5627 5622 5626 5631 5626 5653 5691 5693 5691 5694 5697 5697 5694 5690 5684 5679 5673 5667 5658 5649 5639 5628 5620 5609 5597 5587 5578 5567 5554 5541 5528 5514 5500 5487 5475
5652 5653 5664 5660 5657 5649 5642 5635 5621 5616 5612 5618 5627 5626 5664 5692 5688 5684 5683 5683 5683 5685 5682 5678 5675 5669 5663 5655 5645 5635 5626 5618 5607 5596 5586 5575 5563 5550 5539 5526 5514 5500 5487 5474
5646 5648 5658 5656 5653 5646 5635 5626 5624 5609 5605 5599 5615 5630 5659 5687 5688 5685 5681 5677 5676 5676 5674 5672 5669 5662 5656 5649 5642 5634 5624 5614 5604 5594 5582 5570 5559 5547 5536 5523 5509 5496 5483 5470
5647 5642 5650 5648 5645 5640 5635 5622 5607 5605 5598 5595 5605 5619 5645 5669 5677 5677 5673 5670 5667 5666 5665 5664 5663 5659 5653 5647 5638 5628 5619 5611 5601 5589 5578 5568 5556 5544 5532 5518 5505 5492 5479 5465
5642 5635 5638 5638 5633 5631 5622 5617 5609 5596 5589 5586 5585 5617 5657 5659 5665 5662 5662 5661 5658 5658 5660 5661 5660 5656 5648 5640 5631 5622 5613 5604 5594 5585 5574 5564 5553 5539 5526 5515 5503 5490 5475 5461
5631 5618 5618 5628 5632 5627 5618 5614 5602 5597 5595 5576 5569 5614 5662 5658 5656 5650 5649 5651 5652 5653 5655 5654 5651 5646 5639 5630 5621 5613 5605 5597 5589 5579 5568 5558 5547 5534 5523 5513 5501 5486 5472 5457
5619 5612 5609 5619 5620 5615 5612 5608 5599 5597 5587 5569 5569 5619 5656 5650 5647 5648 5645 5645 5646 5646 5646 5644 5641 5636 5630 5622 5613 5605 5598 5590 5581 5570 5561 5551 5541 5531 5522 5511 5498 5483 5468 5453
5613 5605 5604 5606 5613 5614 5606 5604 5595 5589 5583 5579 5591 5620 5646 5647 5643 5644 5642 5638 5634 5632 5631 5631 5629 5627 5621 5614 5606 5598 5591 5583 5573 5564 5555 5547 5540 5530 5520 5507 5493 5479 5464 5449
5604 5596 5596 5599 5603 5597 5595 5599 5599 5591 5596 5594 5616 5619 5635 5636 5629 5627 5625 5622 5620 5621 5621 5619 5616 5616 5612 5605 5598 5591 5585 5576 5567 5558 5551 5546 5536 5525 5512 5500 5488 5474 5459 5445
5589 5586 5587 5590 5597 5592 5588 5598 5604 5604 5602 5600 5606 5614 5630 5620 5614 5612 5610 5607 5606 5607 5608 5607 5606 5605 5603 5599 5592 5586 5579 5571 5560 5553 5548 5540 5528 5517 5506 5494 5480 5467 5454 5439
5575 5573 5574 5576 5585 5582 5584 5608 5610 5606 5605 5600 5601 5611 5613 5606 5606 5603 5599 5597 5596 5595 5595 5595 5595 5595 5594 5591 5586 5579 5574 5563 5553 5547 5541 5531 5520 5510 5499 5487 5474 5462 5448 5433
5568 5562 5556 5549 5567 5565 5606 5616 5609 5602 5607 5605 5600 5599 5596 5593 5593 5591 5588 5587 5587 5586 5586 5586 5585 5585 5584 5581 5576 5569 5563 5553 5545 5538 5532 5524 5512 5502 5489 5477 5466 5454 5441 5428
5566 5559 5550 5535 5540 5562 5585 5602 5598 5589 5593 5601 5591 5588 5584 5582 5578 5584 5586 5581 5577 5576 5575 5574 5572 5570 5569 5567 5562 5556 5550 5542 5535 5531 5525 5516 5504 5493 5482 5471 5461 5450 5437 5424
5549 5550 5541 5525 5525 5547 5585 5596 5592 5584 5576 5590 5583 5578 5572 5567 5559 5570 5578 5574 5571 5570 5567 5564 5561 5558 5556 5556 5548 5540 5537 5532 5529 5526 5519 5509 5499 5488 5479 5470 5458 5446 5433 5421
5538 5527 5523 5521 5518 5550 5576 5577 5576 5562 5568 5576 5571 5565 5560 5553 5551 5557 5560 5559 5558 5556 5554 5551 5546 5543 5543 5540 5533 5528 5527 5525 5524 5519 5512 5503 5494 5484 5474 5464 5453 5441 5428 5415
5543 5529 5515 5514 5513 5542 5572 5565 5561 5563 5566 5561 5558 5555 5551 5549 5548 5548 5547 5544 5541 5539 5537 5535 5531 5530 5530 5526 5520 5518 5519 5520 5517 5512 5505 5498 5490 5480 5470 5458 5447 5435 5423 5410
5543 5550 5545 5538 5556 5567 5564 5560 5561 5556 5552 5552 5549 5546 5541 5538 5538 5536 5533 5530 5527 5525 5523 5521 5518 5517 5520 5517 5511 5509 5514 5512 5508 5504 5498 5491 5483 5474 5465 5453 5442 5429 5417 5407
5552 5546 5538 5539 5555 5557 5557 5553 5552 5551 5549 5547 5541 5536 5532 5527 5525 5519 5516 5515 5513 5513 5512 5509 5507 5507 5510 5509 5506 5503 5505 5503 5499 5495 5491 5484 5475 5466 5457 5448 5437 5426 5415 5405
5550 5543 5536 5546 5555 5553 5555 5550 5548 5545 5540 5537 5533 5528 5521 5516 5511 5507 5503 5503 5503 5502 5499 5497 5495 5497 5499 5500 5499 5498 5497 5494 5491 5488 5483 5476 5469 5460 5450 5442 5433 5424 5415 5407
5545 5541 5538 5550 5550 5543 5550 5545 5540 5536 5532 5527 5521 5515 5510 5503 5498 5495 5493 5493 5492 5491 5490 5488 5488 5488 5490 5490 5490 5490 5488 5485 5481 5479 5474 5467 5460 5451 5442 5433 5424 5418 5409 5402